Location: Bucharest
(44.4268°N, 26.1025°E)
Time: 16:46:32
(UTC+03:00)

UWE-3 - Visible Passes

Search period start: 25 June 2022 00:00
Search period end: 05 July 2022 00:00
Orbit: 581 x 680 km, 97.7° (Epoch: 25 June)

Date Brightness Start Highest point End Pass type
(mag) Time Alt. Az. Time Alt. Az. Time Alt. Az.
25 Jun ? 04:46:39 10° NNE 04:50:55 87° ESE 04:55:16 10° SSW visible
26 Jun ? 03:32:25 10° ENE 03:34:45 14° E 03:37:04 10° ESE visible
27 Jun ? 03:52:01 10° NE 03:55:27 23° E 03:58:56 10° SSE visible
28 Jun ? 04:12:05 10° NNE 04:16:05 37° E 04:20:10 10° SSE visible
29 Jun ? 04:32:23 10° NNE 04:36:40 62° E 04:41:03 10° S visible
30 Jun ? 03:19:49 10° E 03:20:21 10° E 03:20:54 10° E visible
30 Jun ? 04:52:52 10° N 04:57:12 79° WNW 05:01:37 10° SSW visible
01 Jul ? 03:38:13 10° NE 03:41:05 17° E 03:44:01 10° SE visible
02 Jul ? 03:58:01 10° NE 04:01:46 27° E 04:05:34 10° SSE visible
03 Jul ? 04:18:11 10° NNE 04:22:22 44° E 04:26:39 10° S visible
04 Jul ? 04:38:32 10° NNE 04:42:56 74° ESE 04:47:25 10° S visible
